Location: ???????
(38.3360°N, 23.6977°E)
Time: 21:19:37
(UTC+00:00)

Landsat 7 - Pass Details

Date: 17 November 2025
Orbit: 680 x 682 km, 97.9° (Epoch: 11 December)

Event Time Altitude Azimuth Distance (km) Brightness Sun altitude
Rises 16:07:19 0° 167° (SSE) 3,027 7.1 -11.2°
Reaches altitude 10° 16:09:33 10° 168° (SSE) 2,116 6.3 -11.6°
Maximum altitude 16:14:11 87° 255° (WSW) 688 3.8 -12.5°
Drops below altitude 10° 16:18:51 10° 347° (NNW) 2,130 6.3 -13.4°
Sets 16:21:06 0° 348° (NNW) 3,049 7.1 -13.8°
